Overview Statistics Trail Chart Weather Telemetry Raw packets
 

This is the latest recevied weather packets stored in our database for station/object WI0K. If no packets are shown the sender has not sent any weather packets the latest 10 day(s).

<< 63 64 65 66 67 68 69 >>
Time Temp. Humidity Pressure Rain* Wind** Luminosity Snow
1788230230 22.22° C 48% 1022.3 hPa 0 mm - 0 W/m² -
1788229929 21.67° C 50% 1021.8 hPa 0 mm - 0 W/m² -
1788229628 21.67° C 49% 1021.5 hPa 0 mm - 0 W/m² -
1788229328 21.67° C 49% 1020.8 hPa 0 mm - 0 W/m² -
1788229027 21.67° C 50% 1020.5 hPa 0 mm - 0 W/m² -
1788228726 21.67° C 49% 1020.5 hPa 0 mm - 0 W/m² -
1788228426 22.22° C 50% 1020.5 hPa 0 mm - 0 W/m² -
1788228125 22.22° C 48% 1020.5 hPa 0 mm - 0 W/m² -
1788227824 22.78° C 47% 1020.4 hPa 0 mm - 0 W/m² -
1788227523 23.33° C 48% 1020.2 hPa 0 mm - 0 W/m² -
1788227222 23.89° C 46% 1019.9 hPa 0 mm - 0 W/m² -
1788226922 25° C 43% 1019.9 hPa 0 mm - 0 W/m² -
1788226621 26.11° C 37% 1019.8 hPa 0 mm - 1 W/m² -
1788226320 26.67° C 30% 1019.6 hPa 0 mm - 1 W/m² -
1788226019 26.67° C 29% 1019.4 hPa 0 mm - 1 W/m² -
1788225719 27.22° C 28% 1019.1 hPa 0 mm - 2 W/m² -
1788225417 27.22° C 28% 1019.1 hPa 0 mm - 3 W/m² -
1788225116 27.22° C 28% 1019.1 hPa 0 mm - 6 W/m² -
1788224815 27.22° C 28% 1019 hPa 0 mm - 13 W/m² -
1788224514 27.78° C 28% 1019 hPa 0 mm - 16 W/m² -
1788224214 27.78° C 28% 1019.1 hPa 0 mm - 19 W/m² -
1788223913 27.78° C 28% 1019.1 hPa 0 mm - 18 W/m² -
1788223611 27.78° C 28% 1019.2 hPa 0 mm - 14 W/m² -
1788223310 27.78° C 28% 1019.2 hPa 0 mm - 16 W/m² -
1788223009 27.78° C 28% 1019.2 hPa 0 mm - 27 W/m² -

* Rain latest hour (hover to see other rain measurements)
** Current wind speed in m/s (hover to see current wind gust speed)